Location: Red Rock Farm
(35.2100°N, 97.2200°W)
Time: 21:01:33
(UTC-05:00)

ISS - All Passes

Search period start: 29 July 2016 00:00
Search period end: 08 August 2016 00:00
Orbit: 401 x 404 km, 51.6° (Epoch: 29 July)

Date Brightness Start Highest point End Pass type
(mag) Time Alt. Az. Time Alt. Az. Time Alt. Az.
29 Jul - 02:47:53 10° N 02:48:53 11° NNE 02:49:54 10° NE night (unlit)
29 Jul - 04:22:34 10° NW 04:25:49 73° NE 04:29:03 10° SE visible
29 Jul - 19:26:31 10° SE 19:26:45 10° SE 19:26:59 10° ESE daylight
29 Jul - 20:59:34 10° WSW 21:02:46 59° NW 21:05:59 10° NE visible
30 Jul - 03:29:49 10° NNW 03:32:50 34° NE 03:35:50 10° ESE night (unlit)
30 Jul - 05:06:47 10° W 05:09:04 18° SW 05:11:21 10° S night (unlit)
30 Jul - 20:06:39 10° SW 20:09:51 60° SE 20:13:04 10° NE daylight
30 Jul - 21:44:32 10° WNW 21:46:33 15° NNW 21:48:33 10° N visible
31 Jul - 02:37:17 10° NNW 02:39:45 20° NNE 02:42:13 10° E night (unlit)
31 Jul - 04:13:13 10° WNW 04:16:17 38° SW 04:19:19 10° SSE night (unlit)
31 Jul - 19:14:15 10° S 19:17:01 26° SE 19:19:49 10° ENE daylight
31 Jul - 20:50:39 10° W 20:53:25 25° NW 20:56:10 10° NNE daylight
01 Aug - 01:45:06 10° N 01:46:35 12° NNE 01:48:03 10° NE night (unlit)
01 Aug - 03:20:09 10° NW 03:23:24 89° W 03:26:40 10° SE night (unlit)
01 Aug - 18:22:47 10° SSE 18:24:17 13° SE 18:25:46 10° E daylight
01 Aug - 19:57:13 10° WSW 20:00:22 47° NW 20:03:32 10° NE daylight
02 Aug - 02:27:21 10° NW 02:30:27 41° NE 02:33:33 10° ESE night (unlit)
02 Aug - 04:04:43 10° W 04:06:36 15° SW 04:08:28 10° SSW night (unlit)
02 Aug - 19:04:11 10° SW 19:07:25 77° SE 19:10:41 10° NE daylight
02 Aug - 20:42:28 10° WNW 20:44:12 13° NNW 20:45:55 10° N daylight
03 Aug - 01:34:44 10° NNW 01:37:24 22° NNE 01:40:02 10° E night (unlit)
03 Aug - 03:10:55 10° WNW 03:13:50 30° SW 03:16:44 10° SSE night (unlit)
03 Aug - 18:11:37 10° SSW 18:14:34 32° SE 18:17:32 10° ENE daylight
03 Aug - 19:48:27 10° W 19:51:02 22° NNW 19:53:38 10° NNE daylight
04 Aug - 00:42:24 10° N 00:44:14 14° NNE 00:46:02 10° ENE visible
04 Aug - 02:17:44 10° NW 02:20:59 71° SW 02:24:12 10° SE night (unlit)
04 Aug - 17:19:46 10° SSE 17:21:47 15° SE 17:23:49 10° E daylight
04 Aug - 18:54:53 10° WSW 18:57:57 39° NW 19:01:03 10° NNE daylight
05 Aug - 01:24:51 10° NW 01:28:02 50° NE 01:31:13 10° ESE night (unlit)
05 Aug - 03:02:51 10° WSW 03:04:06 12° SW 03:05:21 10° SSW night (unlit)
05 Aug - 18:01:44 10° SW 18:04:59 85° NW 18:08:15 10° NE daylight
05 Aug - 19:40:29 10° NW 19:41:50 12° NNW 19:43:11 10° N daylight
06 Aug - 00:32:10 10° NNW 00:35:00 26° NE 00:37:48 10° E visible
06 Aug - 02:08:38 10° WNW 02:11:21 25° SW 02:14:04 10° S night (unlit)
06 Aug - 17:09:01 10° SSW 17:12:05 41° SE 17:15:11 10° ENE daylight
06 Aug - 18:46:14 10° W 18:48:38 19° NNW 18:51:03 10° NNE daylight
06 Aug - 23:39:45 10° N 23:41:51 16° NNE 23:43:57 10° ENE visible
07 Aug - 01:15:19 10° NW 01:18:31 56° SW 01:21:42 10° SSE night (unlit)
07 Aug - 16:16:54 10° S 16:19:17 19° SE 16:21:40 10° E daylight
07 Aug - 17:52:33 10° WSW 17:55:32 32° NW 17:58:31 10° NNE daylight
07 Aug - 22:48:04 10° NNE 22:48:37 10° NNE 22:49:10 10° NNE visible
